Location: Fontevrault
(47.1823°N, 0.0493°E)
Time: 01:33:54
(UTC+00:00)

Cosmos 2058 Rocket - Pass Details

Date: 26 October 2021
Orbit: 610 x 640 km, 82.5° (Epoch: 30 November)

Event Time Altitude Azimuth Distance (km) Brightness Sun altitude
Rises 04:59:27 0° 8° (N) 2,895 6.6 -16.6°
Reaches altitude 10° 05:03:12 10° 41° (NE) 1,978 6.2 -16.0°
Maximum altitude 05:04:48 12° 63° (ENE) 1,858 6.4 -15.7°
Drops below altitude 10° 05:06:24 10° 85° (E) 1,970 7.0 -15.5°
Sets 05:10:05 0° 117° (ESE) 2,866 7.7 -14.8°
